This is the latest recevied weather packets stored in our database for station/object KD4PMP. If no packets are shown the sender has not sent any weather packets the latest 10 day(s).
| Time | Temp. | Humidity | Pressure | Rain* | Wind** | Luminosity | Snow |
|---|---|---|---|---|---|---|---|
| 1788143917 | 27.78° C | 78% | 1016.9 hPa | 0 mm | - | - | - |
| 1788143310 | 27.78° C | 77% | 1016.9 hPa | 0 mm | - | - | - |
| 1788142704 | 27.78° C | 77% | 1017 hPa | 0 mm | - | - | - |
| 1788142098 | 28.33° C | 76% | 1016.8 hPa | 0 mm | - | - | - |
| 1788141491 | 28.33° C | 76% | 1016.8 hPa | 0 mm | - | - | - |
| 1788140884 | 28.33° C | 74% | 1016.5 hPa | 0 mm | - | - | - |
| 1788140278 | 28.89° C | 73% | 1016.4 hPa | 0 mm | - | - | - |
| 1788139672 | 28.89° C | 72% | 1016.1 hPa | 0 mm | - | - | - |
| 1788139065 | 29.44° C | 71% | 1016.1 hPa | 0 mm | - | - | - |
| 1788138459 | 30° C | 70% | 1016 hPa | 0 mm | - | - | - |
| 1788137852 | 30.56° C | 69% | 1016 hPa | 0 mm | - | - | - |
| 1788137246 | 31.11° C | 67% | 1016 hPa | 0 mm | - | - | - |
| 1788136640 | 31.11° C | 65% | 1016 hPa | 0 mm | - | - | - |
| 1788136033 | 31.67° C | 63% | 1015.8 hPa | 0 mm | - | - | - |
| 1788135426 | 32.22° C | 63% | 1015.8 hPa | 0 mm | - | - | - |
| 1788134820 | 32.22° C | 61% | 1015.8 hPa | 0 mm | - | - | - |
| 1788134214 | 32.78° C | 61% | 1015.7 hPa | 0 mm | - | - | - |
| 1788133607 | 32.78° C | 59% | 1015.7 hPa | 0 mm | - | - | - |
| 1788133001 | 33.33° C | 58% | 1015.7 hPa | 0 mm | - | - | - |
| 1788132395 | 34.44° C | 56% | 1015.7 hPa | 0 mm | - | - | - |
| 1788131788 | 34.44° C | 55% | 1015.7 hPa | 0 mm | - | - | - |
| 1788131182 | 35° C | 54% | 1015.8 hPa | 0 mm | - | - | - |
| 1788130576 | 35° C | 54% | 1015.7 hPa | 0 mm | - | - | - |
| 1788129969 | 35.56° C | 53% | 1015.7 hPa | 0 mm | - | - | - |
| 1788129363 | 35.56° C | 53% | 1015.7 hPa | 0 mm | - | - | - |
* Rain latest hour (hover to see other rain measurements)
** Current wind speed in m/s (hover to see current wind gust speed)